Location: Newark
(43.4545°N, 5.8521°W)
Time: 02:35:34
(UTC+00:00)

ISS - Pass Details

Date: 28 November 2019
Orbit: 411 x 421 km, 51.6° (Epoch: 14 December)

Event Time Altitude Azimuth Distance (km) Brightness Sun altitude
Rises 18:58:07 0° 285° (WNW) 2,358 1.2 -22.8°
Reaches altitude 10° 19:00:34 10° 302° (WNW) 1,498 -0.3 -23.2°
Enters shadow 19:02:17 19° 330° (NNW) 1,084 -1.5 -23.5°
